Flag for Norway Weather past 2 weeks in Molde, Norway

Now
54 °F

Sprinkles. Broken clouds.


Feels Like: 52 °F
Forecast: 49 / 57 °F
Wind: 7 mph from North

Location: Molde / Aro

Current Time: Sep 5, 2015 at 4:55:32 PM

Latest Report: Sep 5, 2015 at 4:20 PM


Visibility: N/A

Pressure: 29.83 "Hg

Humidity: 77%

Dew point: 46 °F

Location of MoldeLocation

Historic Weather in Molde — Graph

°F

Molde temperature yesterday

Maximum temperature yesterday: 57 °F (at 9:50 AM)
Minimum temperature yesterday: 50 °F (at 1:50 AM)
Average temperature yesterday: 54 °F

Past Weeks' High & Low Weather Summary

 TemperatureHumidityPressure
High82 °F (Aug 24, 4:20 PM)100% (Aug 28, 1:20 AM)30.24 "Hg (Aug 28, 1:20 AM)
Low48 °F (Sep 5, 4:20 AM)23% (Aug 24, 4:20 PM)29.42 "Hg (Aug 27, 6:50 PM)
Average61 °F74%29.84 "Hg
* Reported Aug 21 3:20 PM — Sep 5 3:20 PM, Molde, Weather by CustomWeather, © 2015

Note: Actual official high and low records may vary slightly from our data, if they occured in-between our weather recording intervals... More about our weather records

Advertising

Molde weather history for previous 24 hours

 ConditionsComfort  
Time TempWeatherWind HumidityBarometerVisibility
3:20 PM
Sat, Sep 5
55 °FSprinkles. Broken clouds.7 mph77%29.80 "HgN/A
2:50 PM55 °FScattered showers. Broken clouds.8 mph77%29.80 "HgN/A
2:20 PM55 °FSprinkles. Broken clouds.7 mph77%29.77 "HgN/A
1:50 PM55 °FSprinkles. Broken clouds.9 mph82%29.77 "HgN/A
1:20 PM55 °FSprinkles. Broken clouds.8 mph82%29.74 "HgN/A
12:50 PM55 °FScattered showers. Broken clouds.5 mph77%29.74 "HgN/A
12:20 PM54 °FSprinkles. Partly sunny.5 mph82%29.74 "HgN/A
11:50 AM54 °FSprinkles. Broken clouds.6 mph82%29.71 "HgN/A
11:20 AM54 °FSprinkles. Partly sunny.5 mph77%29.71 "HgN/A
10:50 AM52 °FPartly sunny.3 mph82%29.71 "HgN/A
10:20 AM54 °FPartly sunny.3 mph82%29.68 "HgN/A
9:50 AM54 °FPartly sunny.2 mph82%29.68 "HgN/A
9:20 AM50 °FBroken clouds.3 mph88%29.68 "HgN/A
8:50 AM50 °FLight rain. Broken clouds.2 mph88%29.65 "HgN/A
8:20 AM50 °FDrizzle. Broken clouds.2 mph94%29.65 "HgN/A
7:50 AM48 °FScattered showers. Broken clouds.5 mph94%29.65 "HgN/A
7:20 AM48 °FPartly cloudy.3 mph94%29.62 "HgN/A
6:50 AM48 °FPartly cloudy.3 mph94%29.62 "HgN/A
6:20 AM48 °FPartly cloudy.3 mph87%29.62 "HgN/A
5:50 AM48 °FPartly cloudy.6 mph87%29.59 "HgN/A
5:20 AM48 °FMostly cloudy.9 mph87%29.59 "HgN/A
4:50 AM48 °FMostly cloudy.2 mph94%29.59 "HgN/A
4:20 AM48 °FMostly cloudy.6 mph94%29.59 "HgN/A
12:20 AM50 °FLight rain. Partly cloudy.12 mph94%29.59 "HgN/A
11:20 PM
Fri, Sep 4
50 °FLight rain. Partly cloudy.9 mph94%29.59 "HgN/A
10:50 PM50 °FLight rain. Partly cloudy.10 mph94%29.59 "HgN/A
10:20 PM50 °FLight rain. Partly cloudy.12 mph94%29.59 "Hg5 mi
9:50 PM50 °FLight rain. Partly cloudy.9 mph88%29.59 "HgN/A
9:20 PM52 °FLight rain. Broken clouds.14 mph88%29.62 "HgN/A
8:50 PM52 °FLight rain. Broken clouds.9 mph88%29.62 "HgN/A
8:20 PM52 °FLight rain. Broken clouds.13 mph88%29.62 "HgN/A
7:50 PM52 °FLight rain. Broken clouds.9 mph88%29.65 "HgN/A
6:50 PM55 °FBroken clouds.14 mph77%29.65 "HgN/A
6:20 PM54 °FBroken clouds.9 mph82%29.68 "HgN/A
5:50 PM54 °FBroken clouds.9 mph82%29.68 "HgN/A
5:20 PM54 °FScattered showers. Broken clouds.9 mph82%29.71 "HgN/A
4:50 PM54 °FPartly sunny.12 mph82%29.71 "HgN/A
4:20 PM54 °FSprinkles. Partly sunny.9 mph82%29.74 "HgN/A
Weather by CustomWeather, © 2015

See weather overviewHow to use our weather pages